SCP
0 0 0 0 0 0 0 1 2 4 6 6 5 5 5 5 6 7 7 8 9 10 11 11 12 12 12 11 10 9 9 10 12 12 11 9 7 6 6 6 6 6 6 7
0 0 0 0 0 1 1 1 2 4 5 5 5 4 4 5 5 6 6 6 8 9 10 10 10 11 10 10 10 9 8 9 11 12 11 10 8 6 6 7 7 7 8 8
0 0 0 1 1 1 1 2 2 3 3 3 3 4 4 4 5 5 5 6 7 9 10 9 8 8 9 9 10 10 9 9 10 11 12 11 9 8 8 8 9 9 9 10
0 0 1 1 1 1 1 1 2 2 2 2 3 4 4 4 5 5 6 7 8 10 10 10 9 8 8 9 11 12 13 12 11 11 12 12 11 12 12 11 10 10 10 11
0 0 1 1 1 1 1 1 2 2 3 3 4 4 4 4 4 5 6 8 10 11 11 11 12 12 11 13 15 17 17 16 15 14 14 14 14 15 16 15 13 11 11 11
1 0 1 1 0 0 1 2 3 5 6 6 6 6 6 6 6 6 7 9 11 13 12 12 13 14 15 16 18 18 16 16 17 17 17 16 17 18 19 19 18 16 14 13
1 0 0 0 0 1 2 3 5 7 8 8 8 8 8 7 6 6 7 10 13 14 13 11 10 11 13 14 14 12 11 13 16 18 19 18 18 21 24 25 23 19 17 15
1 1 1 1 2 2 3 5 5 7 8 8 8 9 10 9 7 6 8 11 14 15 13 10 8 8 10 10 9 8 8 10 13 17 18 18 21 26 30 28 23 18 16 15
2 2 3 3 4 4 5 5 6 7 7 7 7 8 10 11 8 7 9 13 15 15 13 10 8 8 10 11 11 10 9 10 12 15 18 20 25 30 30 25 18 14 13 13
3 4 5 6 5 5 5 5 7 7 7 6 6 7 10 12 10 8 10 15 16 15 13 10 8 9 11 13 15 14 12 11 12 15 19 25 28 26 20 14 12 12 13 14
4 5 6 5 5 4 5 6 7 7 7 7 6 7 9 11 10 10 12 15 16 15 12 11 10 10 12 15 16 15 14 13 14 17 22 25 22 16 10 7 7 9 11 12
3 4 4 4 4 5 7 9 11 11 11 10 10 11 12 12 11 11 13 14 14 13 11 11 11 11 13 15 16 16 15 15 17 20 21 17 12 9 7 5 4 4 5 6
3 3 3 3 4 5 8 10 12 13 13 13 13 13 13 13 13 12 12 11 11 11 10 10 10 10 12 14 15 15 15 15 16 17 15 11 8 7 6 5 3 2 2 2
4 3 3 3 4 5 6 8 8 10 11 11 11 11 11 12 12 11 11 10 9 9 9 9 9 9 10 11 12 14 15 14 12 11 11 10 9 8 7 6 5 4 3 2
4 4 4 4 4 4 4 4 4 5 6 6 7 7 9 10 10 10 9 8 8 8 9 9 8 9 9 9 10 12 13 12 10 10 11 10 10 9 9 9 7 6 5 3
3 3 3 4 3 3 3 2 2 2 3 3 4 6 9 10 10 9 8 8 8 8 9 9 9 9 9 9 8 9 11 11 10 11 12 11 11 11 11 11 10 8 6 4
2 2 2 2 2 2 2 2 2 2 2 2 2 5 9 10 9 8 8 8 9 9 9 9 9 9 9 9 8 7 8 9 9 11 13 13 13 13 14 14 12 10 8 5
2 2 2 2 2 2 2 2 2 2 2 2 2 5 9 10 10 8 7 7 7 8 8 7 7 7 8 8 7 6 6 7 8 10 11 12 13 14 14 14 13 11 8 5
2 2 2 2 2 2 2 2 2 2 2 2 3 5 8 10 10 8 6 5 5 6 6 5 5 6 7 7 6 5 5 5 7 7 8 9 10 11 11 11 10 9 7 5
2 2 3 3 3 2 2 2 2 2 2 2 3 5 7 9 9 7 5 4 4 4 4 4 4 5 5 5 4 4 4 4 5 6 6 7 8 9 8 8 7 7 7 6
3 3 3 2 2 2 2 2 2 1 1 2 4 5 6 8 7 5 4 4 4 4 3 4 4 4 3 3 3 3 3 4 4 5 7 8 9 9 9 8 8 8 8 7
2 2 2 2 2 1 1 1 1 1 1 2 4 5 6 6 5 4 3 3 3 3 3 3 3 2 2 2 2 2 2 3 4 5 6 6 7 7 7 7 6 6 6 6
1 1 1 1 1 1 1 1 1 1 1 3 4 5 5 5 4 3 2 3 2 2 3 3 2 1 1 2 2 2 2 3 3 4 4 4 3 3 3 2 2 2 3 3
1 1 1 1 1 1 1 1 1 1 2 2 3 4 4 4 2 2 2 2 2 2 3 2 1 1 1 2 2 1 1 2 2 2 2 2 1 1 1 1 1 1 1 1
1 1 1 1 1 1 2 2 2 2 2 2 3 2 2 2 1 1 2 2 2 2 3 2 1 1 1 1 1 1 1 1 1 1 1 1 1 1 1 1 1 1 1 1
1 1 1 1 1 2 2 2 2 2 2 2 2 2 2 2 1 1 2 2 2 3 3 2 1 1 1 1 1 1 1 1 0 0 0 0 0 1 1 1 1 1 1 1
1 1 1 1 1 2 2 2 2 2 1 1 1 2 2 2 2 2 2 2 3 3 3 1 1 1 1 1 1 1 1 1 0 0 0 0 0 0 1 1 1 1 1 1
Wind_Speed
13 13 13 12 12 13 12 11 10 6 5 3 1 2 2 3 4 6 6 6 6 6 6 6 6 5 4 4 4 4 3 4 4 4 3 3 3 3 3 4 4 3 3 3
13 14 15 14 14 14 13 11 9 6 5 2 3 4 4 4 4 5 5 4 5 5 4 5 5 5 4 4 3 4 4 4 4 4 3 3 3 4 3 3 3 3 4 3
12 13 14 15 12 12 11 8 7 6 3 1 2 5 4 3 4 4 4 4 3 4 4 3 4 4 5 4 4 4 4 3 3 4 4 4 4 3 3 4 4 4 4 4
11 11 15 8 7 8 8 5 4 3 1 1 2 3 4 4 5 5 5 4 4 2 2 2 3 4 4 5 4 4 4 4 4 4 4 4 3 3 3 3 3 4 4 4
9 12 13 8 7 8 7 5 4 3 1 1 2 3 4 5 6 6 5 4 3 2 1 1 1 2 3 4 4 4 4 3 3 4 3 3 3 4 3 3 4 4 5 4
10 12 11 7 7 7 6 5 3 3 4 4 2 1 3 6 6 6 4 4 3 3 2 2 1 1 1 2 2 3 3 2 2 3 4 4 4 4 3 3 4 4 4 4
12 12 8 6 8 6 7 0 5 5 5 4 5 5 4 5 5 4 3 3 3 3 2 2 1 1 1 1 1 1 2 2 2 3 3 4 3 3 3 3 3 3 4 4
9 11 7 4 4 3 4 5 5 5 5 6 6 5 5 5 5 3 3 3 2 2 2 2 2 0 0 0 1 1 2 2 2 3 4 4 3 3 3 4 4 4 5 5
3 3 3 5 5 4 4 4 4 5 5 4 4 4 4 4 3 3 3 2 2 2 2 2 2 1 1 0 1 2 2 3 3 4 4 3 4 4 4 3 4 4 4 4
3 2 1 3 3 4 5 5 4 4 4 4 4 5 5 4 3 3 3 2 2 2 2 2 1 2 1 1 1 2 3 3 3 4 4 4 3 4 4 3 4 3 4 3
3 2 1 1 2 3 4 4 4 4 5 5 5 5 4 3 3 3 3 3 2 2 3 2 2 2 2 1 1 3 3 2 3 4 3 2 3 3 3 2 2 3 3 3
4 3 3 2 2 3 3 4 4 5 5 5 5 5 5 3 3 3 3 3 2 3 3 3 2 2 2 2 2 2 3 3 3 2 2 2 2 2 1 2 3 3 3 3
2 4 4 3 3 4 4 4 5 5 5 5 5 5 4 3 3 4 3 3 3 3 3 3 3 3 2 2 2 3 3 3 3 2 2 2 2 2 2 2 2 2 3 3
2 3 4 4 4 4 5 5 5 6 5 5 5 5 4 4 4 4 4 5 4 4 4 4 3 3 2 2 3 3 3 3 3 3 2 3 3 3 3 3 2 2 2 4
3 4 4 5 5 5 5 5 5 5 5 5 5 5 4 5 4 4 4 5 5 4 4 4 3 3 2 3 3 3 4 3 3 3 3 3 3 3 3 3 2 2 2 1
5 5 5 5 5 5 5 6 6 6 5 5 5 5 5 5 4 4 4 5 5 5 4 3 3 4 3 4 3 3 3 4 4 4 4 4 3 3 3 3 2 2 2 1
6 6 6 6 6 6 6 6 6 6 6 6 6 5 5 5 4 3 4 4 4 4 4 3 3 3 3 4 4 4 3 3 5 4 4 4 3 3 2 2 2 1 1 1
7 7 7 6 5 6 6 6 6 6 6 5 5 5 4 4 4 4 4 4 3 3 4 4 4 4 4 4 4 5 4 4 3 3 3 3 3 2 3 2 2 2 1 1
6 7 7 6 6 6 6 6 6 5 4 5 5 5 4 4 4 4 4 3 3 3 3 3 4 5 4 3 4 4 4 4 3 3 3 3 3 3 3 2 2 2 1 1
4 5 6 6 6 5 4 4 4 4 4 4 5 4 4 3 4 3 3 3 3 3 2 2 3 4 4 3 5 4 4 4 3 3 3 3 3 3 3 2 2 2 1 1
4 5 5 4 3 3 3 4 4 4 4 5 4 4 4 4 4 3 3 3 2 2 3 3 3 3 4 4 5 4 4 3 3 3 3 2 2 2 2 2 2 1 1 1
3 3 3 3 3 3 3 3 4 4 5 5 4 4 3 3 4 3 2 2 2 2 3 2 2 4 5 6 4 3 3 3 3 3 2 2 1 1 1 2 2 2 1 1
3 3 3 3 4 4 5 4 4 4 4 4 3 3 3 3 3 3 2 1 1 2 3 2 3 5 6 4 3 3 3 3 3 3 3 2 2 2 2 2 2 2 1 1
2 3 3 3 4 4 5 5 4 4 3 3 2 2 2 2 2 2 2 1 0 1 2 2 2 4 4 3 3 2 2 2 2 3 3 3 2 2 2 2 2 2 2 2
3 3 4 4 3 3 4 4 4 3 3 2 2 1 2 2 2 2 2 1 1 0 1 0 2 4 4 3 2 2 1 2 2 3 3 3 3 3 2 2 2 3 3 3
3 3 2 2 3 3 3 3 3 2 2 2 2 1 1 1 2 2 1 1 1 1 2 1 1 2 3 3 2 1 1 1 1 2 3 3 3 3 4 4 5 3 3 3
2 2 2 3 3 3 2 2 2 1 1 1 2 1 1 1 2 2 2 1 1 2 2 2 2 2 2 2 2 2 2 2 2 2 3 3 3 3 3 4 3 3 3 3
Wind_Direction
268 271 272 270 263 256 250 257 265 264 237 229 136 85 88 99 112 123 130 137 136 138 145 151 156 156 161 173 171 170 175 183 172 176 180 183 192 202 199 204 216 213 222 226
266 266 266 261 256 258 256 254 258 254 257 252 138 96 63 69 89 102 111 118 133 139 141 152 158 164 171 175 170 168 182 190 173 178 186 192 205 209 213 216 223 216 223 228
263 261 262 253 255 259 259 262 268 271 272 191 114 99 73 67 76 74 96 115 121 142 151 165 172 168 177 179 176 181 187 188 183 188 196 202 215 212 219 226 229 232 232 229
260 263 256 262 279 275 272 282 287 294 345 18 81 97 90 85 76 68 57 66 84 92 140 173 180 179 184 189 187 190 194 191 191 196 204 208 213 216 220 227 233 237 238 232
255 253 255 254 263 267 267 279 292 284 323 25 99 116 88 79 80 72 59 48 48 54 61 69 120 167 181 196 192 194 200 202 198 202 206 213 215 221 222 224 235 237 238 230
250 253 254 267 277 276 262 240 346 0 37 26 19 200 99 83 78 69 54 51 36 25 38 45 31 90 166 199 189 199 204 211 204 215 215 214 214 222 226 224 228 242 247 232
245 250 252 293 302 287 253 237 41 27 28 27 27 19 50 68 74 72 56 58 50 29 30 35 29 72 177 213 207 226 230 220 207 214 223 219 209 217 219 222 233 240 251 244
245 250 248 330 292 329 50 59 54 35 26 29 39 38 39 43 51 46 42 43 33 26 16 16 19 344 208 296 299 263 244 239 235 228 236 231 214 224 224 223 231 235 243 241
252 250 25 23 45 62 71 63 46 31 23 24 24 19 18 23 29 22 9 16 4 358 4 6 349 335 268 277 287 271 256 239 242 238 236 230 228 229 224 218 234 242 240 238
270 234 45 34 38 47 42 37 37 24 13 16 5 357 3 10 7 4 335 327 342 336 328 327 336 327 310 283 258 253 255 245 243 238 236 229 219 227 225 228 234 243 246 250
272 258 246 279 349 16 23 12 4 3 360 350 345 341 342 341 347 344 329 321 330 320 314 322 319 306 302 308 265 258 257 253 258 245 241 243 233 242 235 240 221 235 254 255
258 273 272 268 309 339 347 345 345 344 339 334 330 326 323 323 323 314 308 315 316 302 300 301 298 296 313 317 292 271 261 253 258 260 237 236 239 270 311 264 221 216 233 249
306 308 302 297 305 319 318 322 325 321 319 321 320 320 319 318 313 309 304 303 297 292 288 285 280 281 286 291 297 280 273 269 269 269 255 253 254 250 260 298 288 244 244 249
343 318 299 301 303 306 305 307 308 308 313 311 311 312 313 311 309 307 304 303 296 291 289 284 273 282 302 298 294 291 273 254 261 261 258 258 260 259 248 242 251 257 248 227
273 271 276 287 294 299 303 303 300 300 305 307 311 312 315 313 307 305 307 303 300 294 294 296 300 308 311 291 281 283 285 272 265 273 261 253 254 260 262 253 249 243 232 215
272 278 271 276 284 287 292 298 298 302 307 307 309 310 307 301 301 307 311 315 310 301 300 306 313 317 315 303 290 278 275 279 273 270 266 261 252 249 249 249 243 239 232 211
265 268 272 274 277 281 288 295 298 300 298 297 305 306 303 303 307 320 316 316 326 321 318 316 313 318 309 299 293 284 280 271 261 261 260 260 267 270 273 273 268 253 239 177
262 267 269 274 281 287 289 289 287 287 288 297 306 301 299 305 312 317 314 317 315 304 304 309 322 318 304 301 298 290 284 275 268 274 277 275 280 281 273 267 265 269 240 168
260 263 269 274 274 276 279 282 288 298 307 311 305 302 307 309 308 314 315 304 291 284 298 315 315 304 298 304 301 285 281 283 287 284 276 269 262 264 271 273 274 276 259 189
266 272 273 271 269 270 277 285 288 293 299 300 298 300 302 306 310 307 309 305 303 306 314 313 300 298 299 308 303 288 284 284 290 291 282 276 271 270 270 271 271 276 300 314
276 282 284 280 286 289 289 292 292 293 295 293 291 296 304 304 296 293 295 298 337 338 320 315 305 309 315 317 296 287 287 292 291 286 285 288 302 312 315 313 319 328 331 321
302 302 309 317 312 308 308 302 295 289 288 285 285 289 295 298 296 290 284 298 317 340 307 299 317 339 331 316 301 308 316 315 309 305 301 298 314 310 285 287 285 278 276 263
324 328 321 312 309 309 308 302 293 283 278 274 273 278 282 293 293 293 296 302 321 328 312 329 349 343 327 304 305 305 308 319 322 318 322 325 323 311 319 319 306 306 316 330
296 295 290 289 291 293 294 297 296 288 278 266 256 261 271 282 283 284 287 259 317 307 325 11 340 323 306 302 310 305 308 329 332 323 325 331 325 320 334 343 345 9 12 360
275 277 280 277 276 277 277 275 274 276 278 283 281 272 269 273 288 303 314 357 53 286 301 297 261 274 275 282 290 294 318 349 339 335 343 341 336 336 346 357 8 12 4 3
264 266 276 280 274 268 272 275 272 263 273 284 286 292 294 312 303 292 297 284 292 290 295 306 285 270 291 313 316 331 352 12 16 355 345 344 351 0 5 3 6 11 7 7
256 246 246 263 266 265 265 273 286 291 278 281 303 325 323 306 305 314 314 292 262 261 265 284 294 299 321 340 359 23 25 24 23 14 357 355 7 14 12 10 11 12 13 21